Погода в Казанке

Россия / Оренбургская область     52°37′31″N   55°04′08″E
темп.,
°C
ветер,
м/с
пор.,
м/с
влажн.,
%
обл.,
%
осадки,
мм/ч
давл.,
гПа
погр.,
м
10 апреля, сб
сб1023:00+4юв61593100 0.0 1026251
02:00+3юв61485100 0.0 1026222
05:00+3юв6148062 0.0 1027213
08:00+3юв61581100 0.0 1028228
11:00+5юв71690100 0.0 1028304
14:00+8юв91689100 0.0 1028450
17:00+9юв101789100 0.0 1029483
20:00+6юв10199392 0.0 1030371
11 апреля, вс
вс1123:00+5юв8189488 0.0 1032388
02:00+3юв71782100 0.0 1032346
05:00+2юв7167799 0.0 1033323
08:00+3юв71678100 0.0 1034339
11:00+7ююв8126655 0.0 1034442
14:00+12ююв79540 0.0 1033629
17:00+14ююв79515 0.0 1032693
20:00+10юв59745 0.0 1033188
12 апреля, пн
пн1223:00+7юв48875 0.0 1034163
02:00+5юв38865 0.0 1035140
05:00+4юв337742 0.0 103641
08:00+5вюв246519 0.0 1036114
11:00+10юв34407 0.0 1036355
14:00+15юв332856 0.0 1035619
17:00+16вюв222428 0.0 1034745
20:00+13в2336100 0.0 103313
13 апреля, вт
вт1323:00+10вюв224574 0.0 103410
02:00+8ююв225543 0.0 103511
05:00+6юв22645 0.0 103610
08:00+7юв22555 0.0 103626
11:00+12юв353753 0.0 1035423
14:00+16юв44285 0.0 1034825
17:00+17юв44255 0.0 1033948
20:00+14юв22385 0.0 103211
14 апреля, ср
ср1423:00+10юв33505 0.0 103316
02:00+8юв22605 0.0 103311
05:00+6юв22685 0.0 103310
08:00+7юв11685 0.0 103215
11:00+13юв23555 0.0 1031440
14:00+16юв22435 0.0 1029824
17:00+18в11365 0.0 1027995
20:00+15св11445 0.0 102611